Regional Weather Roundup
Issued by NWS Sioux Falls, SD

Home | Current Version | Previous Version | Text Only | Print | Product List | Glossary On
Versions: 1 2 3 4 5 6 7 8 9 10 11 12 13 14 15 16 17 18 19 20 21 22 23 24 25 26 27 28 29 30 31 32 33 34 35 36 37 38 39 40 41 42 43 44 45 46 47 48 49 50
000
ASUS43 KFSD 300110
RWRFSD

WEATHER ROUNDUP FOR SE SOUTH DAKOTA/SW MINNESOTA/NW IOWA
NATIONAL WEATHER SERVICE SIOUX FALLS SD
800 PM CDT TUE JUL 29 2014

NOTE: "FAIR" INDICATES FEW OR NO CLOUDS BELOW 12,000 FEET WITH NO
SIGNIFICANT WEATHER AND OR OBSTRUCTIONS TO VISIBILITY.


SDZ038>040-050-052>070-300200-
SOUTHEAST SOUTH DAKOTA

CITY           SKY/WX    TMP DP  RH WIND       PRES   REMARKS
CHAMBERLAIN    CLEAR     75  52  43 E3        30.12S
HURON          CLEAR     75  53  46 N5        30.10F
MADISON        FAIR      70  57  64 NE3       30.13F
MITCHELL       CLEAR     74  57  55 N5        30.11F
SIOUX FALLS    PTCLDY    72  54  53 NW6       30.12F
WINNER         FAIR      79  48  33 E3        30.14S
YANKTON        CLEAR     73  55  53 E3        30.12F
$$

MNZ071-072-080-081-089-090-097-098-300200-
SOUTHWEST MINNESOTA

CITY           SKY/WX    TMP DP  RH WIND       PRES   REMARKS
FAIRMONT       CLEAR     72  48  43 NW6       30.09S
JACKSON        CLEAR     70  54  56 NW5       30.11F
LUVERNE        CLEAR     72  54  53 NW3       30.12S
MARSHALL       CLEAR     72  55  56 N6        30.10S
MONTEVIDEO     CLEAR     73  55  53 N3        30.10S
PIPESTONE      CLEAR     72  52  49 NW6       30.12F
REDWOOD FALLS  CLEAR     73  54  51 NW6       30.08F
TRACY          CLEAR     71  56  60 NW5       30.11S
WINDOM         CLEAR     70  57  64 NW3       30.11S
WORTHINGTON    PTCLDY    70  57  64 N5        30.13F
$$

IAZ001>003-012>014-020>022-031-032-NEZ013-014-SDZ071-300200-
NORTHWEST IOWA

CITY           SKY/WX    TMP DP  RH WIND       PRES   REMARKS
CHEROKEE       CLEAR     71  55  58 NW3       30.11S
DENISON        PTCLDY    72  57  60 NW6       30.09F
ESTHERVILLE    CLEAR     71  56  58 NW6       30.10S
LE MARS        CLEAR     72  57  60 CALM      30.12S
ORANGE CITY    CLEAR     72  59  64 NW3       30.12F
SHELDON        CLEAR     70  61  73 NW3       30.11F
SIOUX CITY     CLEAR     74  55  51 N7        30.11F
SPENCER        CLEAR     67  59  75 NW5       30.11F
STORM LAKE     CLEAR     70  57  64 NW6       30.12F
$$

ABBREVIATIONS USED IN REMARKS
   TC - TEMPERATURE IN CELSIUS
  WCI - WIND CHILL INDEX
   HX - HEAT INDEX
  VSB - VISIBILITY




USA.gov is the U.S. government's official web portal to all federal, state and local government web resources and services.